C/2017 U5 ( PanSTARRS )

Japanese version
Home page
Updated on February 13, 2018

---------------------------------------------------------------------

* Profile

Discovery Date October 30, 2017
Magnitude 21.3 mag
Discoverer Pan-STARRS 1 telescope (Haleakala)

* Orbital Elements

Epoch 2018 Jan. 2.0 TT = JDT 2458120.5
T 2017 Dec. 18.83191 TT                                 MPCW
q   4.3270182            (2000.0)            P               Q
n   0.01414376     Peri.  262.10643     +0.40343960     -0.91013082
a  16.9339983      Node   163.11959     +0.91387478     +0.39566832
e   0.7444775      Incl.   18.95709     +0.04549040     +0.12291653
P  69.69
From 80 observations 2017 Oct. 30-Dec. 24, mean residual 0".4.

* Magnitudes Graph

        m1 = 11.5 + 5 log d + 10.0 log r

---------------------------------------------------------------------

The orbital elements are published on M.P.E.C. 2018-B155.
The magnitudes graphs are made with Comet for Windows.

---------------------------------------------------------------------

Copyright(C) Seiichi Yoshida (comet@aerith.net). All rights reserved.